Showing default

COSMOS 192, 3047

Orbit data source: Space-Track

COSMOS 192, 3047 is a payload satellite owned by OKB-10 (CIS) in LEO that was launched on Thu, 23 Nov 1967 UTC via a KOSMOS 11K65M launch vehicle from the Plesetsk Missile And Space Complex (PKMTR). Payload-class satellites include a variety of spacecraft equipped with specific instruments for various scientific and technological missions. These include communications satellites like Starlink; space stations such as the ISS; scientific satellites like the Hubble; Earth observation satellites from companies like Planet Labs, Umbra, and HawkEye 360; GPS; miniature CubeSats for education and research; and military/defense satellites.

Loading next visibility...
Identifier
3047, 1967-116A
Orbit
LEO
Last TLE update
1 day ago
Origin
Manufacturer
OKB-10
Mission
Defense Navigation
Bus & Motor
KAUR-1 11F617, Unknown motor
Mass
775 kg wet, 775 kg dry
Launch date (UTC)
1967-11-23 (57 years ago)
Launch vehicle
KOSMOS 11K65M
Launch site
Plesetsk Missile And Space Complex (PKMTR)
Object type
Payload
Rocket body
Debris
Shape & HBR
Cyl + 1 Rod, 17 m
Radar Cross Section
9.978 m², Large (>1 m²)

Expand to show TLE details & history

TLE from 1 day ago
0 COSMOS 192
1  3047U 67116A   25108.44521227  .00000655  00000-0  15144-3 0  9992
2  3047  74.0097 103.9396 0007954   5.5524 354.5727 14.57212724 37200
Epoch: 2025-04-18T10:41Z
Definitive object data (Epoch: 2025-04-18T10:41:06.34Z)
Latitude
0.00003°
Longitude
96.86053°
Altitude
699.216 km
Speed
7.51 km/s
True Right ascension
06h 55m 45s
True Declination
0° 00' 00"
Sunlit
Object was in daylight at TLE epoch
Visualization TLE readout
Latitude
2.61854°
Longitude
94.86443°
Altitude
698.883 km
Speed
7.51 km/s
Apparent Right ascension
09h 41m 29s
Apparent Declination
-39° 40' 42"
Sunlit
Object is in daylight
Visualization observer readout
Local Sidereal Time
04:10:18
Azimuth
125.847° SE
Elevation
-19.611°
Doppler factor
1
Orbital elements
Apogee altitude
705.421 km
Perigee altitude
694.161 km
Semi-major axis
7,077.928 km
Eccentricity
0.0007954
Inclination
74.0097°
RAAN
103.9396°
Arg. of periapsis
5.5524°
True anomaly
354.56407°
Mean anomaly
354.5727°
Eccentric anomaly
354.56839°
Mean motion
3.64489 °/min
BSTAR
0.00015144
Orbital period
98.77 mins
Loading maneuver chart data...
Loading SW <> Apogee altitude chart data...
Loading historical data...
Loading historical data...
Loading historical data...
Loading historical data...
Loading historical data...
Loading historical data...
Loading historical data...

COSMOS 192 Visibility forecast

Observer location: undefined°, undefined°

Span
Click to sort rows by Start time (UTC) header in descending order
Start Az.
Max El. time (UTC)
Max El. Az.
Max El.
End time (UTC)
End Az.
9 mins2025-04-20 00:41:53.367Z197.726° SSW2025-04-20 00:45:53.367Z199.971° SSW43.974°2025-04-20 00:50:53.367Z18.846° NNE
8 mins2025-04-20 11:02:53.367Z330.294° NNW2025-04-20 11:05:53.367Z272.114° WNW41.457°2025-04-20 11:10:53.367Z174.317° S
|